Location: Casilda
(33.0440°S, 61.1680°W)
Time: 20:55:09
(UTC-03:00)

ISS - Pass Details

Date: 27 November 2023
Orbit: 415 x 417 km, 51.6° (Epoch: 04 December)

Event Time Altitude Azimuth Distance (km) Brightness Sun altitude
Exits shadow 02:34:02 12° 124° (SE) 1,417 -0.4 -30.7°
Drops below altitude 10° 02:34:16 10° 125° (SE) 1,514 -0.2 -30.6°
Sets 02:36:25 0° 129° (SE) 2,384 1.1 -30.4°
